DW8522 Weather Reports


time (UTC)temp
F
wind
direction
speed
knots
gust
knots
rain 1hr
in
rain 24hr
in
rain mn
in
humidity
%
barometer
mb
20260506034518 69 97 0.0 2.6 0.00 0.24 0.24 82 1028.2
20260506033006 69 113 0.9 2.6 0.00 0.24 0.24 82 1028.2
20260506031504 69 105 0.9 3.5 0.00 0.24 0.24 81 1028.2
20260506030011 69 101 0.9 2.6 0.00 0.24 0.24 83 1028.1
20260506024619 69 105 0.0 4.3 0.00 0.24 0.24 84 1028.1
20260506023057 69 98 0.9 3.5 0.00 0.24 0.24 82 1028.2
20260506021557 68 105 0.9 2.6 0.00 0.24 0.24 84 1028.2
20260506020052 68 117 0.0 3.5 0.00 0.24 0.24 84 1028.3
20260506014552 68 117 0.9 3.5 0.00 0.24 0.24 83 1028.4
20260506013102 69 108 0.9 3.5 0.00 0.24 0.24 84 1028.3
20260506011549 68 113 1.7 3.5 0.00 0.24 0.24 85 1028.4
20260506010042 68 121 0.9 2.6 0.00 0.24 0.24 90 1028.6
20260506004537 67 84 0.9 2.6 0.00 0.24 0.24 94 1028.9
20260506003035 65 110 0.0 2.6 0.00 0.24 0.24 96 1028.9
20260506001532 64 121 0.0 1.7 0.00 0.24 0.24 96 1029.3
20260506000028 64 120 0.0 1.7 0.01 0.24 0.24 95 1029.8
20260505234534 65 123 0.0 0.9 0.02 0.24 0.24 96 1029.8
20260505233026 64 122 0.0 1.7 0.02 0.24 0.24 96 1029.8
20260505231523 63 120 0.0 1.7 0.02 0.24 0.24 97 1029.9
20260505230038 63 119 0.0 0.9 0.02 0.24 0.24 97 1030.2
20260505224522 63 118 0.0 1.7 0.02 0.23 0.23 97 1030.3
20260505223019 62 118 0.0 0.9 0.01 0.22 0.22 97 1030.2
20260505221519 62 118 0.0 0.9 0.01 0.22 0.22 97 1030.3
20260505220016 62 119 0.0 1.7 0.00 0.21 0.21 97 1030.4
20260505214519 62 118 0.0 1.7 0.01 0.21 0.21 97 1030.3
20260505213014 62 120 0.0 0.9 0.04 0.21 0.21 97 1030.2
20260505211512 61 120 0.0 0.9 0.06 0.21 0.21 97 1030.3
20260505210010 60 120 0.0 1.7 0.09 0.21 0.21 97 1030.4
20260505204508 60 136 0.0 0.9 0.10 0.20 0.20 97 1030.5
20260505203008 60 136 0.0 0.9 0.09 0.17 0.17 97 1030.4
20260505201508 60 136 0.0 1.7 0.06 0.15 0.15 97 1030.4
20260505200006 59 135 0.0 0.0 0.04 0.13 0.13 97 1030.3
20260505194502 59 135 0.0 0.0 0.01 0.09 0.09 97 1030.1
20260505193100 59 136 0.0 0.9 0.00 0.09 0.09 97 1029.8
20260505191601 58 135 0.0 0.9 0.00 0.09 0.09 97 1029.7
20260505190057 58 135 0.9 1.7 0.02 0.09 0.09 96 1029.7
20260505184557 58 135 0.0 0.9 0.06 0.09 0.09 96 1029.8
20260505183102 58 135 0.0 0.9 0.07 0.09 0.09 96 1029.8
20260505181555 58 136 0.9 2.6 0.07 0.09 0.09 96 1029.7
20260505180053 58 143 0.0 0.9 0.05 0.06 0.06 96 1029.7
20260505174557 58 143 0.0 1.7 0.01 0.02 0.02 96 1029.7
20260505173053 57 142 0.0 2.6 0.00 0.02 0.02 96 1029.8
20260505171552 57 143 0.0 1.7 0.00 0.02 0.02 96 1029.6
20260505170051 57 142 0.9 1.7 0.00 0.02 0.02 96 1029.7
20260505164559 57 142 0.0 1.7 0.00 0.02 0.02 96 1029.7
20260505163056 57 142 0.0 1.7 0.00 0.02 0.02 96 1029.6
20260505161549 57 143 0.0 0.9 0.00 0.02 0.02 96 1029.6
20260505153055 57 142 0.9 2.6 0.00 0.02 0.02 95 1029.8
20260505151550 57 139 0.0 1.7 0.00 0.02 0.02 95 1029.9
20260505124525 58 143 0.9 2.6 0.00 0.00 0.00 90 1031.3
20260505123017 58 145 0.9 2.6 0.00 0.00 0.00 91 1031.3
20260505121513 58 149 0.0 2.6 0.00 0.00 0.00 91 1031.3
20260505120010 58 145 0.0 2.6 0.00 0.00 0.00 91 1031.4
20260505114517 57 148 0.9 1.7 0.00 0.00 0.00 91 1031.4
20260505113009 57 146 0.0 2.6 0.00 0.00 0.00 91 1031.4
20260505111508 57 149 0.0 1.7 0.00 0.00 0.00 91 1031.5
20260505101505 58 146 0.0 1.7 0.00 0.00 0.00 90 1032.0
20260505100006 58 143 0.0 1.7 0.00 0.00 0.00 90 1032.0
20260505094505 58 141 0.0 0.9 0.00 0.00 0.00 89 1031.9
20260505093003 59 142 0.0 1.7 0.00 0.00 0.00 89 1032.0
20260505091506 59 136 0.9 2.6 0.00 0.00 0.00 88 1032.0
20260505090002 59 134 0.0 1.7 0.00 0.00 0.00 88 1031.9
20260505084502 59 134 0.0 0.9 0.00 0.00 0.00 88 1031.9
20260505083100 59 134 0.0 1.7 0.00 0.00 0.00 88 1031.8
20260505081604 59 129 0.9 0.9 0.00 0.00 0.00 88 1031.8
20260505080059 59 128 0.0 0.9 0.00 0.00 0.00 88 1031.8
20260505074611 59 129 0.0 0.9 0.00 0.00 0.00 87 1031.9
20260505073102 60 129 0.0 0.9 0.00 0.00 0.00 86 1031.7
20260505071558 61 124 0.0 0.0 0.00 0.00 0.00 86 1031.6
20260505070057 61 122 0.0 0.9 0.00 0.00 0.00 85 1031.5
20260505064559 62 123 0.0 0.9 0.00 0.00 0.00 84 1031.5
20260505063059 62 123 0.0 0.9 0.00 0.00 0.00 83 1031.5
20260505061624 63 120 0.0 0.0 0.00 0.00 0.00 82 1031.4
20260505060055 63 120 0.0 1.7 0.00 0.00 0.00 81 1031.4
20260505054609 63 123 0.9 2.6 0.00 0.00 0.00 81 1031.4
20260505053055 63 120 0.0 1.7 0.00 0.00 0.00 80 1031.3
20260505051553 63 111 0.0 1.7 0.00 0.00 0.00 79 1031.4
20260505041551 65 124 0.0 2.6 0.00 0.00 0.00 75 1031.4
20260505040053 65 109 0.9 3.5 0.00 0.00 0.00 75 1031.4